Date String (YYYY-MM-DD hh:mm:ss) UTC,Instrument flags,Ambient pressure (hPa),Sample flow (lpm),Bypass flow (lpm),Sample temperature (°C),Ambient temperature (°C),ASC tube jacket temperature (°C),LED temperature (°C),Box temperature (°C),Sample RH (%),Span deviation,Mass concentration (μg/m³),Mass concentration (μg/m³),Mass concentration (μg/m³)
DateTimeUTC,F1_M11,P_M11,Q1_M11,Q2_M11,T1_M11,T2_M11,T3_M11,T4_M11,T5_M11,U1_M11,ZSPAN_M11,X0_M11,X2_M11,X1_M11
2023-02-03 09:00:00,,0831.7,5.00,0.00,22.4,21.6,00.0,31.1,24.3,04.9,0000.0,0002.21,0000.73,0000.34
2023-02-03 09:01:00,,0831.7,5.00,0.00,22.4,21.5,00.0,31.2,24.3,04.8,0000.0,0002.03,0000.72,0000.34
2023-02-03 09:02:00,,0831.7,5.00,0.00,22.4,21.5,00.0,31.2,24.3,04.8,0000.0,0001.83,0000.68,0000.34
2023-02-03 09:03:00,,0831.7,4.98,0.00,22.5,21.4,00.0,31.2,24.3,04.9,0000.0,0001.81,0000.66,0000.34
2023-02-03 09:04:00,,0831.7,5.02,0.00,22.5,21.4,00.0,31.2,24.3,05.0,0000.0,0001.67,0000.62,0000.33
2023-02-03 09:05:00,,0831.8,5.01,0.00,22.5,21.4,00.0,31.2,24.3,04.8,0000.0,0001.62,0000.63,0000.33
2023-02-03 09:06:00,,0831.7,5.00,0.00,22.5,21.3,00.0,31.2,24.3,04.8,0000.0,0001.60,0000.62,0000.33
2023-02-03 09:07:00,,0831.7,5.01,0.00,22.5,21.3,00.0,31.3,24.3,04.8,0000.0,0001.56,0000.61,0000.32
2023-02-03 09:08:00,,0831.7,5.01,0.00,22.5,21.3,00.0,31.3,24.3,04.8,0000.0,0001.37,0000.56,0000.32
2023-02-03 09:09:00,,0831.6,5.01,0.00,22.5,21.3,00.0,31.3,24.3,04.8,0000.0,0001.26,0000.54,0000.32
2023-02-03 09:10:00,,0831.7,4.99,0.00,22.5,21.2,00.0,31.3,24.3,04.8,0000.0,0001.02,0000.53,0000.33
2023-02-03 09:11:00,,0831.7,4.99,0.00,22.5,21.2,00.0,31.3,24.3,04.8,0000.0,0000.91,0000.53,0000.33
2023-02-03 09:12:00,,0831.7,5.00,0.00,22.5,21.2,00.0,31.3,24.3,04.8,0000.0,0000.96,0000.54,0000.34
2023-02-03 09:13:00,,0831.7,5.01,0.00,22.5,21.2,00.0,31.3,24.3,04.8,0000.0,0001.00,0000.55,0000.33
2023-02-03 09:14:00,,0831.8,5.01,0.00,22.5,21.2,00.0,31.3,24.3,04.7,0000.0,0001.03,0000.56,0000.34
2023-02-03 09:15:00,,0831.7,4.99,0.00,22.5,21.2,00.0,31.3,24.3,04.7,0000.0,0001.06,0000.57,0000.34
2023-02-03 09:16:00,,0831.7,4.99,0.00,22.5,21.2,00.0,31.3,24.4,04.8,0000.0,0001.04,0000.57,0000.35
2023-02-03 09:17:00,,0831.7,4.98,0.00,22.5,21.2,00.0,31.3,24.4,04.8,0000.0,0001.10,0000.57,0000.35
2023-02-03 09:18:00,,0831.7,4.99,0.00,22.5,21.2,00.0,31.3,24.4,04.7,0000.0,0001.22,0000.58,0000.36
2023-02-03 09:19:00,,0831.7,5.01,0.00,22.5,21.3,00.0,31.3,24.4,04.7,0000.0,0001.19,0000.57,0000.36
2023-02-03 09:20:00,,0831.7,5.00,0.00,22.5,21.3,00.0,31.3,24.3,04.7,0000.0,0001.19,0000.57,0000.36
2023-02-03 09:21:00,,0831.7,5.00,0.00,22.5,21.3,00.0,31.3,24.3,04.7,0000.0,0001.28,0000.61,0000.36
2023-02-03 09:22:00,,0831.7,5.00,0.00,22.5,21.1,00.0,31.3,24.3,04.9,0000.0,0001.27,0000.61,0000.36
2023-02-03 09:23:00,,0831.7,5.00,0.00,22.5,21.1,00.0,31.3,24.3,04.9,0000.0,0001.36,0000.66,0000.36
2023-02-03 09:24:00,,0831.7,5.00,0.00,22.5,21.0,00.0,31.3,24.3,05.0,0000.0,0001.46,0000.69,0000.37
2023-02-03 09:25:00,,0831.7,5.02,0.00,22.5,21.0,00.0,31.3,24.3,05.0,0000.0,0001.51,0000.71,0000.38
2023-02-03 09:26:00,,0831.7,4.99,0.00,22.5,21.0,00.0,31.3,24.3,05.0,0000.0,0001.53,0000.72,0000.37
2023-02-03 09:27:00,,0831.6,5.02,0.00,22.4,20.9,00.0,31.3,24.2,04.9,0000.0,0001.58,0000.74,0000.37
2023-02-03 09:28:00,,0831.7,5.01,0.00,22.4,20.9,00.0,31.3,24.2,05.0,0000.0,0001.58,0000.78,0000.37
2023-02-03 09:29:00,,0831.6,5.00,0.00,22.4,20.9,00.0,31.3,24.2,05.2,0000.0,0001.53,0000.79,0000.37
2023-02-03 09:30:00,,0831.6,5.00,0.00,22.4,21.0,00.0,31.3,24.2,05.4,0000.0,0001.62,0000.82,0000.38
2023-02-03 09:31:00,,0831.6,5.00,0.00,22.4,21.0,00.0,31.3,24.3,05.2,0000.0,0001.68,0000.83,0000.37
2023-02-03 09:32:00,,0831.5,4.99,0.00,22.4,21.0,00.0,31.3,24.2,05.3,0000.0,0001.60,0000.80,0000.37
2023-02-03 09:33:00,,0831.5,5.01,0.00,22.4,21.0,00.0,31.3,24.2,05.2,0000.0,0001.66,0000.82,0000.36
2023-02-03 09:34:00,,0831.6,5.01,0.00,22.4,20.9,00.0,31.3,24.2,05.2,0000.0,0001.78,0000.77,0000.35
2023-02-03 09:35:00,,0831.7,5.00,0.00,22.4,20.9,00.0,31.3,24.2,05.3,0000.0,0001.68,0000.73,0000.35
2023-02-03 09:36:00,,0831.6,5.01,0.00,22.4,21.0,00.0,31.3,24.2,05.2,0000.0,0001.88,0000.70,0000.34
2023-02-03 09:37:00,,0831.5,5.01,0.00,22.4,21.0,00.0,31.3,24.2,05.2,0000.0,0001.84,0000.68,0000.34
2023-02-03 09:38:00,,0831.5,5.00,0.00,22.4,21.1,00.0,31.2,24.2,05.1,0000.0,0001.90,0000.69,0000.34
2023-02-03 09:39:00,,0831.5,5.00,0.00,22.4,21.1,00.0,31.2,24.2,04.9,0000.0,0001.80,0000.64,0000.34
2023-02-03 09:40:00,,0831.5,5.00,0.00,22.4,21.1,00.0,31.2,24.2,04.9,0000.0,0001.81,0000.64,0000.35
2023-02-03 09:41:00,,0831.6,4.99,0.00,22.4,21.0,00.0,31.2,24.2,05.1,0000.0,0001.80,0000.65,0000.34
2023-02-03 09:42:00,,0831.6,5.00,0.00,22.4,21.0,00.0,31.2,24.2,05.0,0000.0,0001.90,0000.71,0000.35
2023-02-03 09:43:00,,0831.5,5.01,0.00,22.3,20.9,00.0,31.2,24.1,05.0,0000.0,0001.89,0000.71,0000.35
2023-02-03 09:44:00,,0831.5,5.00,0.00,22.3,20.9,00.0,31.2,24.0,05.2,0000.0,0001.96,0000.69,0000.35
2023-02-03 09:45:00,,0831.6,5.01,0.00,22.3,20.9,00.0,31.2,24.1,05.7,0000.0,0002.02,0000.71,0000.34
2023-02-03 09:46:00,,0831.5,5.00,0.00,22.3,21.0,00.0,31.2,24.1,05.5,0000.0,0002.02,0000.72,0000.34
2023-02-03 09:47:00,,0831.5,4.99,0.00,22.3,21.0,00.0,31.2,24.1,05.2,0000.0,0001.77,0000.73,0000.33
2023-02-03 09:48:00,,0831.5,4.99,0.00,22.3,21.0,00.0,31.2,24.1,05.2,0000.0,0001.95,0000.80,0000.33
2023-02-03 09:49:00,,0831.5,5.01,0.00,22.3,21.0,00.0,31.2,24.1,05.3,0000.0,0001.98,0000.80,0000.33
2023-02-03 09:50:00,,0831.5,5.01,0.00,22.3,21.0,00.0,31.2,24.1,05.3,0000.0,0002.01,0000.82,0000.33
2023-02-03 09:51:00,,0831.4,5.01,0.00,22.3,21.1,00.0,31.2,24.2,05.1,0000.0,0001.98,0000.81,0000.33
2023-02-03 09:52:00,,0831.5,4.98,0.00,22.3,21.1,00.0,31.2,24.2,05.1,0000.0,0001.85,0000.75,0000.32
2023-02-03 09:53:00,,0831.5,5.02,0.00,22.3,21.1,00.0,31.2,24.2,05.0,0000.0,0001.68,0000.67,0000.31
2023-02-03 09:54:00,,0831.5,4.97,0.00,22.3,21.1,00.0,31.2,24.2,05.1,0000.0,0001.69,0000.66,0000.31
2023-02-03 09:55:00,,0831.4,5.00,0.00,22.3,21.0,00.0,31.2,24.2,05.0,0000.0,0001.65,0000.65,0000.32
2023-02-03 09:56:00,,0831.4,5.05,0.00,22.3,21.0,00.0,31.2,24.2,04.8,0000.0,0001.50,0000.64,0000.32
2023-02-03 09:57:00,,0831.4,4.97,0.00,22.3,21.0,00.0,31.2,24.1,04.8,0000.0,0001.40,0000.64,0000.32
2023-02-03 09:58:00,,0831.5,4.99,0.00,22.3,21.0,00.0,31.2,24.2,04.9,0000.0,0001.70,0000.67,0000.33
2023-02-03 09:59:00,,0831.5,5.02,0.00,22.3,21.0,00.0,31.2,24.1,04.9,0000.0,0002.72,0000.64,0000.32
